Location: Seasalter
(51.3333°N, 1.0167°E)
Time: 05:14:03
(UTC+00:00)

SL-16 R/B - Pass Details

Date: 26 September 2023
Orbit: 842 x 845 km, 71.0° (Epoch: 29 November)

Event Time Altitude Azimuth Distance (km) Brightness Sun altitude
Rises 03:16:33 0° 327° (NNW) 3,415 5.3 -23.4°
Reaches altitude 10° 03:19:02 10° 324° (NW) 2,476 4.6 -23.1°
Maximum altitude 03:24:35 57° 247° (WSW) 992 2.2 -22.3°
Drops below altitude 10° 03:30:06 10° 170° (S) 2,462 4.4 -21.6°
Sets 03:32:34 0° 166° (SSE) 3,393 5.2 -21.2°
